FENGYUN 2H

Last updated on Oct. 27, 2021, 12:02 a.m. UTC

1 43491U 18050A   21299.42192434 -.00000121  00000-0  00000-0 0  9992
2 43491   0.5583 103.7055 0003592  47.1180 115.2905  1.00274560 12444
UTC
Height (km)
Latitude
Longitude
Inclination
Orbital Period
UTC large
Height (km)
Speed (km/s)
/
Latitude / Longitude
Inclination (degrees)
Orbital Period (minutes)
Azimuth
Elevation
Range (km)
Doppler Factor
iOS Compass Heading
iOS Angle